Time,TemperatureF,DewpointF,PressureIn,WindDirection,WindDirectionDegrees,WindSpeedMPH,WindSpeedGustMPH,Humidity,HourlyPrecipIn,Conditions,Clouds,dailyrainin,SoftwareType,DateUTC
2013-02-28 00:09:00,61.2,54.9,30.00,North,0,1.6,2.2,80,0.00,,,0.00,meteobridge,2013-02-28 05:09:00,
2013-02-28 00:24:00,61.3,54.9,30.01,South,180,1.6,5.4,79,0.00,,,0.00,meteobridge,2013-02-28 05:24:00,
2013-02-28 00:39:00,61.5,54.9,30.00,NW,315,1.6,3.1,79,0.00,,,0.00,meteobridge,2013-02-28 05:39:00,
2013-02-28 00:54:00,61.5,54.7,30.01,West,270,2.2,5.4,78,0.00,,,0.00,meteobridge,2013-02-28 05:54:00,
2013-02-28 01:09:00,61.9,54.3,30.00,NW,315,2.2,3.8,76,0.00,,,0.00,meteobridge,2013-02-28 06:09:00,
2013-02-28 01:24:00,61.9,54.3,29.99,West,270,1.6,3.1,76,0.00,,,0.00,meteobridge,2013-02-28 06:24:00,
2013-02-28 01:39:00,61.9,54.3,29.99,West,270,1.6,3.1,76,0.00,,,0.00,meteobridge,2013-02-28 06:39:00,
2013-02-28 01:54:00,61.9,54.7,29.99,West,270,1.6,5.4,77,0.00,,,0.00,meteobridge,2013-02-28 06:54:00,
2013-02-28 02:09:00,61.7,54.1,29.98,SW,225,4.5,4.5,76,0.00,,,0.00,meteobridge,2013-02-28 07:09:00,
2013-02-28 02:24:00,61.7,54.5,29.98,West,270,1.6,1.6,77,0.00,,,0.00,meteobridge,2013-02-28 07:24:00,
2013-02-28 02:39:00,61.7,54.1,29.98,NW,315,3.1,4.5,76,0.00,,,0.00,meteobridge,2013-02-28 07:39:00,
2013-02-28 02:54:00,61.9,53.4,29.98,NW,315,3.8,4.5,74,0.00,,,0.00,meteobridge,2013-02-28 07:54:00,
2013-02-28 03:09:00,62.2,53.8,29.98,NW,315,3.8,6.0,74,0.00,,,0.00,meteobridge,2013-02-28 08:09:00,
2013-02-28 03:24:00,62.2,54.1,29.97,West,270,2.2,3.8,75,0.00,,,0.00,meteobridge,2013-02-28 08:24:00,
2013-02-28 03:39:00,62.2,53.8,29.97,NW,315,3.1,5.4,74,0.00,,,0.00,meteobridge,2013-02-28 08:39:00,
2013-02-28 03:54:00,62.2,53.4,29.97,SW,225,0.7,3.1,73,0.00,,,0.00,meteobridge,2013-02-28 08:54:00,
2013-02-28 04:09:00,62.2,53.1,29.98,NW,315,1.6,3.1,72,0.00,,,0.00,meteobridge,2013-02-28 09:09:00,
2013-02-28 04:24:00,62.6,53.1,29.96,West,270,2.2,2.2,71,0.00,,,0.00,meteobridge,2013-02-28 09:24:00,
2013-02-28 04:39:00,62.6,53.1,29.97,North,0,3.1,3.1,71,0.00,,,0.00,meteobridge,2013-02-28 09:39:00,
2013-02-28 04:54:00,62.4,52.9,29.97,West,270,3.1,6.0,71,0.00,,,0.00,meteobridge,2013-02-28 09:54:00,
2013-02-28 05:09:00,62.6,53.4,29.97,West,270,0.7,3.1,72,0.00,,,0.00,meteobridge,2013-02-28 10:09:00,
2013-02-28 05:24:00,62.6,53.1,29.98,West,270,2.2,3.1,71,0.00,,,0.00,meteobridge,2013-02-28 10:24:00,
2013-02-28 05:39:00,63.0,53.1,29.98,West,270,3.1,5.4,70,0.00,,,0.00,meteobridge,2013-02-28 10:39:00,
2013-02-28 05:54:00,63.1,52.9,29.98,NW,315,4.5,4.5,69,0.00,,,0.00,meteobridge,2013-02-28 10:54:00,
2013-02-28 06:09:00,63.3,53.1,29.98,North,0,3.8,5.4,69,0.00,,,0.00,meteobridge,2013-02-28 11:09:00,
2013-02-28 06:24:00,63.5,53.6,29.99,SW,225,2.2,3.1,70,0.00,,,0.00,meteobridge,2013-02-28 11:24:00,
2013-02-28 06:39:00,63.7,52.9,29.99,NW,315,2.2,4.5,68,0.00,,,0.00,meteobridge,2013-02-28 11:39:00,
2013-02-28 06:54:00,63.3,53.4,30.00,WSW,248,1.6,1.6,70,0.00,,,0.00,meteobridge,2013-02-28 11:54:00,
2013-02-28 07:09:00,63.3,53.4,30.00,NW,315,1.6,2.2,70,0.00,,,0.00,meteobridge,2013-02-28 12:09:00,
2013-02-28 07:24:00,63.3,53.4,30.00,West,270,0.7,0.7,70,0.00,,,0.00,meteobridge,2013-02-28 12:24:00,
2013-02-28 07:39:00,63.5,53.6,30.00,West,270,1.6,2.2,70,0.00,,,0.00,meteobridge,2013-02-28 12:39:00,
2013-02-28 07:54:00,64.0,53.6,30.01,SW,225,0.7,3.1,69,0.00,,,0.00,meteobridge,2013-02-28 12:54:00,
2013-02-28 08:10:00,64.6,53.8,30.01,NE,45,1.6,1.6,68,0.00,,,0.00,meteobridge,2013-02-28 13:10:00,
2013-02-28 08:25:00,65.5,53.8,30.02,NW,315,3.1,3.1,66,0.00,,,0.00,meteobridge,2013-02-28 13:25:00,
2013-02-28 08:40:00,68.4,54.9,30.03,West,270,3.1,3.8,62,0.00,,,0.00,meteobridge,2013-02-28 13:40:00,
2013-02-28 08:55:00,68.0,54.5,30.03,South,180,3.1,4.5,62,0.00,,,0.00,meteobridge,2013-02-28 13:55:00,
2013-02-28 09:10:00,67.1,53.6,30.03,NW,315,3.1,4.5,62,0.00,,,0.00,meteobridge,2013-02-28 14:10:00,
2013-02-28 09:25:00,67.8,53.4,30.03,NW,315,4.5,4.5,60,0.00,,,0.00,meteobridge,2013-02-28 14:25:00,
2013-02-28 09:40:00,68.0,53.6,30.03,West,270,3.8,3.8,60,0.00,,,0.00,meteobridge,2013-02-28 14:40:00,
2013-02-28 09:55:00,67.6,54.1,30.03,NW,315,3.8,3.8,62,0.00,,,0.00,meteobridge,2013-02-28 14:55:00,
2013-02-28 10:10:00,68.0,54.0,30.04,NW,315,3.1,5.4,61,0.00,,,0.00,meteobridge,2013-02-28 15:10:00,
2013-02-28 10:25:00,68.5,54.1,30.03,West,270,6.9,6.9,60,0.00,,,0.00,meteobridge,2013-02-28 15:25:00,
2013-02-28 10:40:00,68.4,54.0,30.03,West,270,5.4,5.4,60,0.00,,,0.00,meteobridge,2013-02-28 15:40:00,
2013-02-28 10:55:00,68.2,54.1,30.03,SW,225,5.4,5.4,61,0.00,,,0.00,meteobridge,2013-02-28 15:55:00,
2013-02-28 11:10:00,69.3,54.3,30.03,NW,315,4.5,4.5,59,0.00,,,0.00,meteobridge,2013-02-28 16:10:00,
2013-02-28 11:25:00,69.3,53.8,30.02,West,270,4.5,4.5,58,0.00,,,0.00,meteobridge,2013-02-28 16:25:00,
2013-02-28 11:40:00,69.4,53.1,30.02,SW,225,4.5,5.4,56,0.00,,,0.00,meteobridge,2013-02-28 16:40:00,
2013-02-28 11:55:00,70.2,53.2,30.02,SW,225,6.9,6.9,55,0.00,,,0.00,meteobridge,2013-02-28 16:55:00,
2013-02-28 12:10:00,70.2,52.2,30.02,NW,315,4.5,4.5,53,0.00,,,0.00,meteobridge,2013-02-28 17:10:00,
2013-02-28 12:25:00,71.2,53.2,30.01,NW,315,6.0,6.0,53,0.00,,,0.00,meteobridge,2013-02-28 17:25:00,
2013-02-28 12:40:00,71.6,52.0,30.01,West,270,4.5,6.0,50,0.00,,,0.00,meteobridge,2013-02-28 17:40:00,
2013-02-28 12:55:00,72.5,52.3,30.00,WNW,293,2.2,3.8,49,0.00,,,0.00,meteobridge,2013-02-28 17:55:00,
2013-02-28 13:10:00,72.0,52.3,29.99,WSW,248,5.4,6.0,50,0.00,,,0.00,meteobridge,2013-02-28 18:10:00,
2013-02-28 13:25:00,72.9,53.1,29.99,WSW,248,3.1,5.4,50,0.00,,,0.00,meteobridge,2013-02-28 18:25:00,
2013-02-28 13:40:00,73.6,52.7,29.98,NW,315,6.0,6.0,48,0.00,,,0.00,meteobridge,2013-02-28 18:40:00,
2013-02-28 13:55:00,72.9,52.5,29.97,NW,315,3.8,8.3,49,0.00,,,0.00,meteobridge,2013-02-28 18:55:00,
2013-02-28 14:10:00,71.2,52.7,29.97,SW,225,6.0,6.9,52,0.00,,,0.00,meteobridge,2013-02-28 19:10:00,
2013-02-28 14:25:00,72.1,52.5,29.97,North,0,8.3,8.3,50,0.00,,,0.00,meteobridge,2013-02-28 19:25:00,
2013-02-28 14:40:00,71.2,53.2,29.96,North,0,5.4,5.4,53,0.00,,,0.00,meteobridge,2013-02-28 19:40:00,
2013-02-28 14:55:00,73.4,53.6,29.96,North,0,2.2,5.4,50,0.00,,,0.00,meteobridge,2013-02-28 19:55:00,
2013-02-28 15:10:00,73.8,54.0,29.96,North,0,6.0,6.0,50,0.00,,,0.00,meteobridge,2013-02-28 20:10:00,
2013-02-28 15:25:00,74.1,54.3,29.96,West,270,3.8,3.8,50,0.00,,,0.00,meteobridge,2013-02-28 20:25:00,
2013-02-28 15:40:00,73.2,54.0,29.96,NW,315,7.6,7.6,51,0.00,,,0.00,meteobridge,2013-02-28 20:40:00,
2013-02-28 15:55:00,72.0,54.0,29.96,West,270,3.8,4.5,53,0.00,,,0.00,meteobridge,2013-02-28 20:55:00,
2013-02-28 16:10:00,71.1,54.5,29.95,NW,315,4.5,4.5,56,0.00,,,0.00,meteobridge,2013-02-28 21:10:00,
2013-02-28 16:25:00,70.0,54.0,29.95,SW,225,4.5,4.5,57,0.00,,,0.00,meteobridge,2013-02-28 21:25:00,
2013-02-28 16:40:00,70.2,53.8,29.96,SW,225,6.0,6.0,56,0.00,,,0.00,meteobridge,2013-02-28 21:40:00,
2013-02-28 16:55:00,69.3,53.8,29.96,WSW,248,6.0,6.0,58,0.00,,,0.00,meteobridge,2013-02-28 21:55:00,
2013-02-28 17:10:00,68.7,53.4,29.95,North,0,3.8,4.5,58,0.00,,,0.00,meteobridge,2013-02-28 22:10:00,
2013-02-28 17:25:00,68.7,54.3,29.96,West,270,1.6,1.6,60,0.00,,,0.00,meteobridge,2013-02-28 22:25:00,
2013-02-28 17:40:00,68.4,54.3,29.96,West,270,3.1,3.8,61,0.00,,,0.00,meteobridge,2013-02-28 22:40:00,
2013-02-28 17:55:00,68.2,54.1,29.96,NW,315,2.2,3.8,61,0.00,,,0.00,meteobridge,2013-02-28 22:55:00,
2013-02-28 18:10:00,67.5,54.5,29.97,SW,225,3.8,3.8,63,0.00,,,0.00,meteobridge,2013-02-28 23:10:00,
2013-02-28 18:25:00,66.9,54.3,29.97,SW,225,2.2,3.1,64,0.00,,,0.00,meteobridge,2013-02-28 23:25:00,
2013-02-28 18:40:00,66.9,54.9,29.97,SW,225,4.5,4.5,65,0.00,,,0.00,meteobridge,2013-02-28 23:40:00,
2013-02-28 18:55:00,66.9,53.4,29.98,SW,225,3.1,3.8,62,0.00,,,0.00,meteobridge,2013-02-28 23:55:00,
2013-02-28 19:10:00,66.9,54.9,29.98,NW,315,3.8,3.8,65,0.00,,,0.00,meteobridge,2013-03-01 00:10:00,
2013-02-28 19:25:00,66.7,56.3,29.98,NW,315,5.4,6.0,69,0.00,,,0.00,meteobridge,2013-03-01 00:25:00,
2013-02-28 19:40:00,66.0,57.6,29.98,NW,315,3.8,7.6,74,0.00,,,0.00,meteobridge,2013-03-01 00:40:00,
2013-02-28 19:55:00,65.3,56.8,29.98,West,270,5.4,5.4,74,0.00,,,0.00,meteobridge,2013-03-01 00:55:00,
2013-02-28 20:10:00,64.8,54.0,29.99,North,0,5.4,5.4,68,0.00,,,0.00,meteobridge,2013-03-01 01:10:00,
2013-02-28 20:26:00,64.2,52.2,29.98,SW,225,5.4,5.4,65,0.00,,,0.00,meteobridge,2013-03-01 01:26:00,
2013-02-28 20:41:00,63.9,52.3,29.98,SSE,158,3.1,4.5,66,0.00,,,0.00,meteobridge,2013-03-01 01:41:00,
2013-02-28 20:56:00,63.5,52.3,29.98,NE,45,5.4,5.4,67,0.00,,,0.00,meteobridge,2013-03-01 01:56:00,
2013-02-28 21:11:00,63.1,52.0,29.99,West,270,2.2,2.2,67,0.00,,,0.00,meteobridge,2013-03-01 02:11:00,
2013-02-28 21:26:00,63.0,51.4,29.99,West,270,1.6,3.8,66,0.00,,,0.00,meteobridge,2013-03-01 02:26:00,
2013-02-28 21:41:00,62.6,51.1,30.00,West,270,2.2,3.1,66,0.00,,,0.00,meteobridge,2013-03-01 02:41:00,
2013-02-28 21:56:00,62.6,51.1,30.00,NW,315,3.1,3.1,66,0.00,,,0.00,meteobridge,2013-03-01 02:56:00,
2013-02-28 22:11:00,62.2,51.1,30.00,NW,315,2.2,2.2,67,0.00,,,0.00,meteobridge,2013-03-01 03:11:00,
2013-02-28 22:26:00,61.9,50.0,30.00,West,270,3.8,3.8,65,0.00,,,0.00,meteobridge,2013-03-01 03:26:00,
2013-02-28 22:41:00,61.9,49.6,29.99,West,270,3.1,3.1,64,0.00,,,0.00,meteobridge,2013-03-01 03:41:00,
2013-02-28 22:56:00,61.9,49.1,29.99,SW,225,4.5,4.5,63,0.00,,,0.00,meteobridge,2013-03-01 03:56:00,
2013-02-28 23:11:00,61.9,48.7,29.99,West,270,3.1,3.1,62,0.00,,,0.00,meteobridge,2013-03-01 04:11:00,
2013-02-28 23:26:00,61.9,48.7,29.98,NW,315,3.1,5.4,62,0.00,,,0.00,meteobridge,2013-03-01 04:26:00,
2013-02-28 23:41:00,61.9,48.7,29.98,SW,225,1.6,1.6,62,0.00,,,0.00,meteobridge,2013-03-01 04:41:00,
2013-02-28 23:56:00,61.9,48.7,29.98,West,270,2.2,2.2,62,0.00,,,0.00,meteobridge,2013-03-01 04:56:00,